Location: Newark
(44.1906°N, 75.9681°W)
Time: 13:37:37
(UTC+00:00)

Envisat - Pass Details

Date: 29 January 2020
Orbit: 764 x 766 km, 98.1° (Epoch: 24 February)

Event Time Altitude Azimuth Distance (km) Brightness Sun altitude
Rises 23:19:10 0° 182° (S) 3,219 6.4 -12.7°
Reaches altitude 10° 23:21:32 10° 188° (S) 2,297 5.7 -13.1°
Maximum altitude 23:26:24 46° 261° (W) 1,018 4.2 -14.0°
Drops below altitude 10° 23:31:18 10° 335° (NNW) 2,313 5.7 -14.9°
Sets 23:33:43 0° 342° (NNW) 3,243 6.4 -15.3°
